Location: Fontevrault
(47.1823°N, 0.0493°E)
Time: 10:15:51
(UTC+00:00)

Cosmos 1626 - Pass Details

Date: 16 June 2021
Orbit: 489 x 493 km, 82.5° (Epoch: 01 August)

Event Time Altitude Azimuth Distance (km) Brightness Sun altitude
Exits shadow 21:27:17 16° 163° (SSE) 1,336 3.7 -11.4°
Maximum altitude 21:29:55 46° 94° (E) 670 2.5 -11.7°
Drops below altitude 10° 21:33:29 10° 21° (NNE) 1,698 5.3 -12.0°
Sets 21:35:40 0° 15° (NNE) 2,586 6.4 -12.2°
